Location: Newark
(13.8117°N, 3.6025°W)
Time: 20:07:29
(UTC+00:00)

Explorer 11/Cluster Stage 4 - Pass Details

Date: 29 August 2019
Orbit: 467 x 1260 km, 28.8° (Epoch: 23 September)

Event Time Altitude Azimuth Distance (km) Brightness Sun altitude
Rises 13:53:40 0° 298° (WNW) 4,189 10.6 65.5°
Reaches altitude 10° 13:56:37 10° 299° (WNW) 3,230 10.2 64.8°
Maximum altitude 14:04:55 80° 26° (NNE) 1,224 8.7 62.8°
Drops below altitude 10° 14:12:25 10° 113° (ESE) 2,937 9.4 61.0°
Sets 14:15:00 0° 114° (ESE) 3,794 9.8 60.4°
